Regional Weather Roundup
Issued by NWS

Home | Current Version | Previous Version | Graphics & Text | Print | Product List | Glossary On
Versions: 1 2 3 4 5 6 7 8 9 10 11 12 13 14 15 16 17 18 19 20 21 22 23 24 25 26 27 28 29 30 31 32 33 34 35 36 37 38 39 40 41 42 43 44 45 46 47 48 49 50
000
ASUS43 KLOT 270112
RWRIL

ILLINOIS REGIONAL WEATHER ROUNDUP
NATIONAL WEATHER SERVICE CHICAGO/ROMEOVILLE IL
800 PM CDT THU MAR 26 2015

NOTE: "FAIR" INDICATES FEW OR NO CLOUDS BELOW 12,000 FEET WITH NO
SIGNIFICANT WEATHER AND/OR OBSTRUCTIONS TO VISIBILITY.

* THESE STATIONS ARE NOT UNDER NWS QUALITY CONTROL. THEY ALSO MAY NOT
  REPORT WEATHER SUCH AS PRECIPITATION OR FOG.

ILZ001-002-007-009-015-016-024-270200-
NORTHWEST ILLINOIS

CITY           SKY/WX    TMP DP  RH WIND       PRES   REMARKS
MOLINE         CLEAR     36  21  54 N14       30.06R WCI  27
STERLING*      CLEAR     34  21  60 N13       30.06R WCI  25
SAVANNA*       CLOUDY    35  20  53 N12       30.07R WCI  27
$$

ILZ003-004-008-010-011-017-018-270200-
NORTH CENTRAL ILLINOIS

CITY           SKY/WX    TMP DP  RH WIND       PRES   REMARKS
ROCKFORD       CLOUDY    35  19  52 N7        30.05R WCI  29
FREEPORT*      CLOUDY    32  21  63 NW9       30.06S WCI  25
ROCHELLE*      CLOUDY    34  25  71 N9        30.04R WCI  26
DE KALB*       CLOUDY    32  22  65 N13       30.02S WCI  23
PERU*          CLOUDY    37  27  69 N7        30.05R WCI  31
$$

ILZ005-006-012>014-019>023-270200-
NORTHEAST ILLINOIS

CITY           SKY/WX    TMP DP  RH WIND       PRES   REMARKS
CHICAGO-OHARE  CLOUDY    36  19  50 N17       30.00S WCI  26
CHICAGO-MIDWAY MOCLDY    39  21  48 N13       30.01R WCI  31
AURORA         MOCLDY    35  22  58 N15       30.02R WCI  25
LANSING*       CLOUDY    36  24  62 NE3       30.01R
JOLIET*        MOCLDY    37  24  59 N6        30.03R WCI  33
WAUKEGAN       CLOUDY    34  22  61 N9        30.01R WCI  27
DUPAGE AIRPORT CLOUDY    35  21  56 NW13      30.01R WCI  26
KANKAKEE*      CLEAR     37  24  60 NW7       30.03R WCI  32
WHEELING       CLOUDY    36  20  52 NW12      30.03R WCI  28
MORRIS*        PTCLDY    34  24  66 N3        30.02R
ROMEOVILLE*    CLOUDY    36  23  58 N7        30.02R WCI  30
NORTHERLY ISL    N/A     36  26  67 N15         N/A  WCI  27
$$

LMZ740>746-270200-
SOUTHERN LAKE MICHIGAN

STATION/POSITION SKY/WX   TEMP    WIND        PRES    VSBY  WAVE
                          AIR SEA DIR/SP/G                  HT/PER
                          (F)     (DEG/KT/KT) (MB)    (MI)  (FT/S)
HARRISON CRIB              35     360/ 17/ 20   N/A
BURNHAM HARBOR             36     360/ 11/ 16   N/A
CALUMET HARBOR             36      20/  6/  7 1014.8S
BURNS HARBOR               35      30/  7/  7 1016.6R
MICHIGAN CITY              34     350/ 11/ 14   N/A
$$

ILZ025>027-034>036-040-047-049-050-058-095>099-270200-
WEST-CENTRAL ILLINOIS

CITY           SKY/WX    TMP DP  RH WIND       PRES   REMARKS
QUINCY         PTCLDY    42  26  53 NW8       30.05R
GALESBURG*     CLEAR     36  25  66 N12       30.05R WCI  27
MACOMB*        PTCLDY    39  26  59 NW9       30.07R WCI  33
JACKSONVILLE*  PTCLDY    40  30  66 NW5       30.05R
PITTSFIELD*    PTCLDY    44  29  57 NW5       30.06R
$$

ILZ028>032-037-038-041>044-048-051>054-059>061-270200-
CENTRAL ILLINOIS

CITY           SKY/WX    TMP DP  RH WIND       PRES   REMARKS
PONTIAC        CLOUDY    39  30  69 N8        30.04R WCI  34
BLOOMINGTON    PTCLDY    41  26  55 NW7       30.03R
DECATUR        CLEAR     42  25  50 NW8       30.03R
PEORIA         CLEAR     42  23  46 N6        30.04R
LACON*         CLOUDY    40  24  51 NW9       30.03R
LINCOLN*       CLEAR     42  27  54 CALM      30.04R
SPRINGFIELD    CLEAR     42  24  49 NW6       30.04R
TAYLORVILLE    CLEAR     41  30  65 NW3       30.04R
$$

ILZ033-039-045-046-055>057-062-063-270200-
EAST-CENTRAL ILLINOIS

CITY           SKY/WX    TMP DP  RH WIND       PRES   REMARKS
CHAMPAIGN      CLEAR     35  27  72 NW8       30.02R WCI  29
DANVILLE*      CLEAR     37  28  71 N5        30.00R WCI  33
RANTOUL*       CLEAR     41  29  64 N6        30.02R
MATTOON        CLOUDY    42  32  67 NW9       30.02R
PARIS*         CLEAR     40  32  73 N6        30.03R
$$

ILZ079-100>102-270200-
SOUTHWEST ILLINOIS

CITY           SKY/WX    TMP DP  RH WIND       PRES   REMARKS
BELLEVILLE     CLEAR     44  30  58 NW5       30.05R
CAHOKIA*       CLEAR     45  27  49 N7        30.06R
SPARTA*        CLEAR     44  30  58 NW5       30.06R
$$

ILZ064>066-069>071-074>076-080>082-084>086-088>090-092>094-270200-
SOUTH-CENTRAL ILLINOIS

CITY           SKY/WX    TMP DP  RH WIND       PRES   REMARKS
CARBONDALE     CLEAR     42  32  67 NW7       30.05R
CAIRO*         CLEAR     43  37  78 N6        30.05R
EFFINGHAM*     CLEAR     42  28  56 NW7       30.04S
MARION         CLEAR     45  32  61 CALM      30.05R
MT. VERNON     CLEAR     43  27  52 CALM      30.04F
CENTRALIA*     CLEAR     42  30  63 NW5       30.04S
SALEM*         CLEAR     44  33  64 N8        30.04S
METROPOLIS*    CLEAR     42  35  75 NW5       30.04R
$$

ILZ067-068-072-073-078-083-087-091-270200-
SOUTHEAST ILLINOIS

CITY           SKY/WX    TMP DP  RH WIND       PRES   REMARKS
LAWRENCEVILLE  PTCLDY    42  32  67 N9        30.01S
FLORA*         CLEAR     41  32  69 NW5       30.03F
FAIRFIELD*     CLEAR     43  32  64 NW5       30.01F
HARRISBURG*    CLEAR     41  33  72 NW6       30.04S
ROBINSON*      PTCLDY    42  33  69 NW7       30.02F
CARMI*         CLEAR     43  35  74 N3        30.02S
$$

ABBREVIATIONS USED IN REMARKS
   TC - TEMPERATURE IN CELSIUS
  WCI - WIND CHILL INDEX
   HX - HEAT INDEX
  VSB - VISIBILITY
$$




USA.gov is the U.S. government's official web portal to all federal, state and local government web resources and services.